Location: Chmeln�
(49.6483°N, 14.9871°E)
Time: 06:06:40
(UTC+00:00)

ARGOS - Pass Details

Date: 18 September 2020
Orbit: 821 x 834 km, 98.4° (Epoch: 22 October)

Event Time Altitude Azimuth Distance (km) Brightness Sun altitude
Rises 17:34:04 0° 146° (SE) 3,344 5.9 -5.3°
Reaches altitude 10° 17:36:27 10° 141° (SE) 2,416 5.1 -5.7°
Maximum altitude 17:41:35 49° 68° (ENE) 1,056 3.4 -6.5°
Drops below altitude 10° 17:46:45 10° 355° (N) 2,438 5.8 -7.4°
Sets 17:49:11 0° 350° (N) 3,377 6.6 -7.7°
